Location: D�derode
(51.8092°N, 10.1065°E)
Time: 18:25:04
(UTC+00:00)

BREEZE-M DEB (TANK) - Visible Passes

Search period start: 16 April 2021 00:00
Search period end: 26 April 2021 00:00
Orbit: 310 x 13092 km, 49.6° (Epoch: 16 April)

Date Brightness Start Highest point End Pass type
(mag) Time Alt. Az. Time Alt. Az. Time Alt. Az.
16 Apr 3.9 02:44:44 10° W 02:49:29 21° SSW 02:51:10 10° S visible
16 Apr 6.8 18:16:48 10° SSW 18:59:39 38° SE 19:11:14 10° E visible
16 Apr 4.5 23:03:36 10° WSW 23:22:33 77° S 23:27:19 10° E visible
17 Apr 6.7 19:09:43 10° SSW 19:52:04 48° SSE 20:01:54 10° ENE visible
17 Apr 4.0 23:59:32 10° W 00:13:21 75° S 00:15:48 28° ESE visible
18 Apr 6.1 20:05:57 10° SW 20:44:03 58° SSE 20:52:13 10° E visible
19 Apr 3.5 00:54:02 10° W 01:03:51 59° SSW 01:04:14 57° S visible
19 Apr 5.5 21:04:02 10° WSW 21:35:36 68° SSE 21:42:22 10° E visible
20 Apr 4.4 01:47:28 10° WNW 01:52:43 29° WSW 01:52:43 29° WSW visible
20 Apr 5.0 22:02:22 10° WSW 22:26:49 76° S 22:32:25 10° E visible
21 Apr 5.5 02:40:36 10° W 02:41:12 11° W 02:41:12 11° W visible
21 Apr 6.8 18:07:32 10° SSW 18:55:13 45° SE 19:06:39 10° ENE visible
21 Apr 4.4 22:59:39 10° W 23:17:46 78° S 23:21:36 18° E visible
22 Apr 6.5 19:02:35 10° SW 19:47:31 55° SSE 19:57:06 10° ENE visible
22 Apr 3.9 23:55:21 10° W 00:08:27 69° SSW 00:10:06 41° SE visible
23 Apr 6.0 20:00:31 10° SW 20:39:21 65° SSE 20:47:17 10° E visible
24 Apr 3.8 00:49:37 10° WNW 00:58:36 48° SW 00:58:36 48° SW visible
24 Apr 5.4 20:59:41 10° WSW 21:30:48 74° SSE 21:37:22 10° E visible
25 Apr 4.9 01:42:58 10° WNW 01:47:05 22° WSW 01:47:05 22° WSW visible
25 Apr 4.9 21:58:23 10° WSW 22:21:56 79° S 22:27:22 10° E visible
